STARLINK-36813

Last updated on Tue Mar 24 2026 00:02:05 GMT+0000 (Coordinated Universal Time)

1 67892U 26035P 26082.37431695 .00070372 00000+0 36502-3 0 9991 2 67892 97.2887 15.5313 0001826 90.6205 269.5272 15.80824350 6007
UTC large
Height (km)
Speed (km/s)
/
Latitude / Longitude
Inclination (degrees)
Orbital Period (minutes)
Azimuth
Elevation
Range (km)
Doppler Factor

Next 0 passes for location: London (51.5072 / 0.1276)

Sorry there are no passes over London.